Regional Weather Roundup
Issued by NWS

Home | Current Version | Previous Version | Text Only | Print | Product List | Glossary On
Versions: 1 2 3 4 5 6 7 8 9 10 11 12 13 14 15 16 17 18 19 20 21 22 23 24 25 26 27 28 29 30 31 32 33 34 35 36 37 38 39 40 41 42 43 44 45 46 47 48 49 50
000
ASUS45 KABQ 250410
RWRNM
NEW MEXICO REGIONAL WEATHER ROUNDUP
NATIONAL WEATHER SERVICE ALBUQUERQUE NM
1000 PM MDT SAT JUN 24 2017

NOTE: "FAIR" MEANS FEW OR NO CLOUDS BELOW 12,000 FEET AGL WITH NO
       SIGNIFICANT WEATHER OR OBSTRUCTIONS TO VISION.

      THIS PRODUCT IS RELEASED AS TWO VERSIONS.  ONE VERSION NEAR
      THE TOP OF THE HOUR CONTAINING PRELIMINARY DATA FROM ALBUQUERQUE
      AND OTHER STATIONS.  A FINAL VERSION WITH ADDITIONAL DATA IS
      ISSUED ABOUT 10 MINUTES AFTER THE HOUR.

NMZ501-503-504-510>518-250500-
NORTHWEST PLATEAU/NORTHCENTRAL MOUNTAINS

CITY           SKY/WX    TMP DP  RH WIND       PRES   REMARKS
FARMINGTON     FAIR      78   6   6 N7        30.10R
LOS ALAMOS     FAIR      67  49  52 S9G20     30.35R
SANTA FE       FAIR      70  54  56 SE15      30.29R
TAOS           FAIR      66  45  45 SE18      30.34R
ANGEL FIRE     CLOUDY    57  50  75 SE5       30.47R

$$
NMZ402-403-502-505>509-250500-
WESTCENTRAL MOUNTAINS/SOUTHWEST MOUNTAINS

CITY           SKY/WX    TMP DP  RH WIND       PRES   REMARKS
GALLUP         FAIR      76  39  26 S7        30.22R
GRANTS         FAIR      73  42  33 SE10      30.28R
SILVER CITY    FAIR      69  54  58 NE15G23   30.20F

$$
NMZ407-409-411-412-250500-
SOUTHERN DESERTS

CITY           SKY/WX    TMP DP  RH WIND       PRES   REMARKS
DEMING         FAIR      70  62  76 NE3       30.24R
LAS CRUCES     RAIN      68  59  74 W24       30.23R
HOLLOMAN AFB   FAIR      72  57  60 NE18G26   30.17R
ALAMOGORDO     FAIR      73  54  49 SW9       30.15R
T OR C         FAIR      68  58  70 NW6       30.20R

$$
NMZ519>523-250500-
CENTRAL VALLEYS/CENTRAL HIGHLANDS

CITY           SKY/WX    TMP DP  RH WIND       PRES   REMARKS
ALBUQUERQUE    FAIR      73  47  39 S20G28    30.22R
DOUBLE EAGLE   CLEAR     70  48  46 S21       30.25R
MORIARTY ARPT  FAIR      67  54  61 E7        30.32R
CLINES CORNERS FAIR      63  51  65 E14       30.38R
BELEN          FAIR      70  48  45 SE18      30.22R
SOCORRO        FAIR      71  49  46 N9        30.19R

$$
NMZ524>526-539-540-250500-
SOUTHCENTRAL MOUNTAINS

CITY           SKY/WX    TMP DP  RH WIND       PRES   REMARKS
RUIDOSO        FAIR      64  54  68 NE5       30.38R

$$
NMZ527>531-250500-
NORTHEAST HIGHLANDS/NORTHEAST PLAINS

CITY           SKY/WX    TMP DP  RH WIND       PRES   REMARKS
LAS VEGAS      CLOUDY    61  51  70 E15       30.40R
RATON          MOCLDY    61  54  77 S9        30.36R
CLAYTON        MOCLDY    61  56  83 SE8       30.33R

$$
NMZ532>537-250500-
EASTCENTRAL PLAINS

CITY           SKY/WX    TMP DP  RH WIND       PRES   REMARKS
SANTA ROSA     FAIR      70  55  58 E6        30.26R
TUCUMCARI      CLOUDY    72  58  61 E14       30.27R
CANNON AFB     CLOUDY    71  62  74 E13       30.27R
CLOVIS AIRPORT CLOUDY    69  60  73 E12       30.27R

$$
NMZ028-029-538-250500-
SOUTHEAST PLAINS

CITY           SKY/WX    TMP DP  RH WIND       PRES   REMARKS
ROSWELL        FAIR      80  57  45 SE8       30.15S
ARTESIA        FAIR      79  57  47 SE9       30.16S
CARLSBAD       FAIR      79  59  50 E5        30.14R
HOBBS          FAIR      75  59  57 E10       30.21R


$$



USA.gov is the U.S. government's official web portal to all federal, state and local government web resources and services.